Weather History for KEQY - April, 2012

Change the Weather History Date:

Saturday, April 28, 2012

  Actual Average (KCLT) Record (KCLT)
Temperature  
Mean Temperature 60 °F 63 °F  
Max Temperature 64 °F 75 °F 90 °F (1943)
Min Temperature 55 °F 50 °F 36 °F (1967)
Degree Days  
Heating Degree Days 4 4  
Month to date heating degree days 191  
Since 1 July heating degree days 3323  
Cooling Degree Days 0 2  
Month to date cooling degree days 32  
Year to date cooling degree days 37  
Growing Degree Days 10 (Base 50)    
Moisture  
Dew Point 54 °F    
Average Humidity 79    
Maximum Humidity 93    
Minimum Humidity 64    
Precipitation  
Precipitation 0.00 in 0.10 in 2.23 in (2013)
Month to date precipitation 2.86  
Year to date precipitation 13.60  
Snow  
Snow 0.00 in 0.00 in T in (1928)
Month to date snowfall 0.0  
Since 1 July snowfall 4.3  
Snow Depth -    
Sea Level Pressure  
Sea Level Pressure 30.14 in    
Wind  
Wind Speed 7 mph (NE)    
Max Wind Speed 12 mph    
Max Gust Speed -    
Visibility 10 miles    
Events      
T = Trace of Precipitation, MM = Missing Value Source: NWS Daily Summary

Daily Weather History Graph

Daily Weather History Graph

Search for Another Location

Airport or City:

Trip Planner

Search our weather history database for the weather conditions in past years. The results will help you decide how hot, cold, wet, or windy it might be!

Date:

Astronomy

Apr. 28, 2012 Rise Set
Actual Time 6:34 AM EDT 8:05 PM EDT
Civil Twilight 6:07 AM EDT 8:32 PM EDT
Nautical Twilight 5:35 AM EDT 9:05 PM EDT
Astronomical Twilight 5:01 AM EDT 9:39 PM EDT
Moon 12:13 PM EDT (4/28) 1:28 AM EDT (4/28)
Length of Visible Light 14h 25m
Length of Day
13h 31m
Waxing Crescent, 42% of the Moon is Illuminated
Apr 28
Waxing Crescent
Apr 29
First Quarter
May 5
Full
May 12
Last Quarter
May 20
New

Hourly Weather History & Observations

Time (EDT) Temp. Dew Point Humidity Pressure Visibility Wind Dir Wind Speed Gust Speed Precip Events Conditions
12:53 AM 64.9 °F 63.0 °F 93% 30.06 in 10.0 mi ENE 5.8 mph - N/A   Scattered Clouds
3:53 AM 62.1 °F 51.1 °F 67% 30.07 in 10.0 mi ENE 6.9 mph - N/A   Overcast
4:53 AM 61.0 °F 51.1 °F 70% 30.09 in 10.0 mi NE 5.8 mph - N/A   Overcast
5:12 AM 60.8 °F 51.8 °F 72% 30.09 in 10.0 mi ENE 5.8 mph - N/A   Overcast
6:53 AM 61.0 °F 54.0 °F 78% 30.12 in 10.0 mi NE 6.9 mph - N/A   Overcast
7:12 AM 60.8 °F 55.4 °F 82% 30.12 in 10.0 mi NE 5.8 mph - N/A   Overcast
7:19 AM 60.8 °F 55.4 °F 82% 30.12 in 10.0 mi NE 5.8 mph - N/A   Overcast
7:53 AM 61.0 °F 53.1 °F 75% 30.14 in 10.0 mi NE 9.2 mph - N/A   Overcast
8:53 AM 60.1 °F 48.0 °F 64% 30.16 in 10.0 mi NNE 10.4 mph - N/A   Overcast
9:53 AM 61.0 °F 50.0 °F 67% 30.17 in 10.0 mi NE 10.4 mph - N/A   Overcast
10:11 AM 60.8 °F 51.8 °F 72% 30.16 in 10.0 mi NE 9.2 mph - N/A   Overcast
10:53 AM 61.0 °F 52.0 °F 72% 30.17 in 10.0 mi NE 11.5 mph - N/A   Overcast
11:53 AM 62.1 °F 54.0 °F 75% 30.17 in 10.0 mi NE 6.9 mph - N/A   Overcast
12:53 PM 63.0 °F 55.0 °F 75% 30.17 in 10.0 mi ENE 6.9 mph - N/A   Overcast
1:53 PM 62.1 °F 54.0 °F 75% 30.17 in 10.0 mi NNE 10.4 mph - N/A   Overcast
2:53 PM 62.1 °F 55.0 °F 78% 30.17 in 10.0 mi NE 9.2 mph - N/A   Overcast
3:31 PM 60.8 °F 55.4 °F 82% 30.15 in 10.0 mi ENE 9.2 mph - N/A   Overcast
3:53 PM 61.0 °F 55.0 °F 81% 30.16 in 10.0 mi NE 6.9 mph - N/A   Overcast
4:36 PM 62.6 °F 55.4 °F 77% 30.13 in 10.0 mi ENE 8.1 mph - N/A   Overcast
4:53 PM 61.0 °F 54.0 °F 78% 30.15 in 10.0 mi NE 9.2 mph - N/A   Overcast
5:53 PM 61.0 °F 54.0 °F 78% 30.15 in 10.0 mi NE 5.8 mph - N/A   Overcast
6:53 PM 61.0 °F 55.0 °F 81% 30.14 in 10.0 mi NE 5.8 mph - N/A   Overcast
7:53 PM 60.1 °F 54.0 °F 80% 30.14 in 10.0 mi NE 8.1 mph - N/A   Overcast
8:53 PM 60.1 °F 55.0 °F 83% 30.15 in 10.0 mi ENE 4.6 mph - N/A   Overcast
9:21 PM 60.8 °F 55.4 °F 82% 30.13 in 10.0 mi ENE 4.6 mph - N/A   Overcast
10:14 PM 59.0 °F 55.4 °F 88% 30.14 in 10.0 mi Calm Calm - N/A   Overcast
10:46 PM 57.2 °F 53.6 °F 88% 30.16 in 10.0 mi NE 4.6 mph - N/A   Partly Cloudy
10:53 PM 57.0 °F 54.0 °F 89% 30.18 in 10.0 mi NE 4.6 mph - N/A   Partly Cloudy
11:53 PM 55.9 °F 54.0 °F 93% 30.18 in 10.0 mi Calm Calm - N/A   Clear